Location: Noulens
(43.8099°N, 0.1664°E)
Time: 17:50:42
(UTC+00:00)

Cosmos 2263 Rocket - Pass Details

Date: 07 June 2020
Orbit: 825 x 847 km, 71.0° (Epoch: 12 July)

Event Time Altitude Azimuth Distance (km) Brightness Sun altitude
Rises 01:03:14 0° 338° (NNW) 3,388 6.2 -21.8°
Reaches altitude 10° 01:05:45 10° 344° (NNW) 2,447 5.4 -21.6°
Maximum altitude 01:11:13 52° 60° (ENE) 1,029 2.9 -21.3°
Enters shadow 01:16:04 13° 134° (SE) 2,220 4.1 -21.1°
